Montauk, NY

7:59 PM EDT on March 26, 2017 (GMT -0400)
Montauk

Weather History for KMTP - December, 2013

Change the Weather History Date:

Wednesday, December 4, 2013

  Actual Average (KHTO) Record (KHTO)
Temperature  
Mean Temperature 42 °F -  
Max Temperature 48 °F 45 °F 69 °F (1998)
Min Temperature 36 °F 30 °F 8 °F (1940)
Degree Days  
Heating Degree Days 23    
Moisture  
Dew Point 34 °F    
Average Humidity 73    
Maximum Humidity 96    
Minimum Humidity 61    
Precipitation  
Precipitation 0.00 in - - ()
Sea Level Pressure  
Sea Level Pressure 30.12 in    
Wind  
Wind Speed 4 mph (WNW)    
Max Wind Speed 8 mph    
Max Gust Speed -    
Averages and records for this station are not official NWS values.
T = Trace of Precipitation, MM = Missing Value Source: NWS Daily Summary

Daily Weather History Graph

Daily Weather History Graph

Search for Another Location

Airport or City:

Trip Planner

Search our weather history database for the weather conditions in past years. The results will help you decide how hot, cold, wet, or windy it might be!

Date:

Astronomy

Dec. 04, 2013 Rise Set
Actual Time 6:56 AM EST 4:19 PM EST
Civil Twilight 6:25 AM EST 4:50 PM EST
Nautical Twilight 5:51 AM EST 5:24 PM EST
Astronomical Twilight 5:18 AM EST 5:57 PM EST
Moon 8:21 AM EST (12/4) 6:26 PM EST (12/4)
Length of Visible Light 10h 24m
Length of Day
9h 22m
Waxing Crescent, 4% of the Moon is Illuminated
Dec 4
Waxing Crescent
Dec 9
First Quarter
Dec 17
Full
Dec 25
Last Quarter
Jan 1
New

Hourly Weather History & Observations

Time (EST) Temp. Windchill Dew Point Humidity Pressure Visibility Wind Dir Wind Speed Gust Speed Precip Events Conditions
12:54 AM 42.1 °F 37.7 °F 32.0 °F 67% 30.01 in - WNW 6.9 mph - N/A   Unknown
1:54 AM 41.0 °F 37.1 °F 32.0 °F 70% 30.03 in - WNW 5.8 mph - N/A   Unknown
2:54 AM 41.0 °F 37.1 °F 32.0 °F 70% 30.04 in - WNW 5.8 mph - N/A   Unknown
3:54 AM 41.0 °F 38.0 °F 32.0 °F 70% 30.04 in - WNW 4.6 mph - N/A   Unknown
4:54 AM 39.9 °F 36.7 °F 32.0 °F 73% 30.05 in - WNW 4.6 mph - N/A   Unknown
5:54 AM 41.0 °F 39.0 °F 32.0 °F 70% 30.08 in - WNW 3.5 mph - N/A   Unknown
6:54 AM 41.0 °F 35.8 °F 30.9 °F 67% 30.10 in - WNW 8.1 mph - N/A   Unknown
7:54 AM 42.1 °F 37.7 °F 30.9 °F 65% 30.12 in - WNW 6.9 mph - N/A   Unknown
8:54 AM 43.0 °F 41.3 °F 32.0 °F 65% 30.13 in - WNW 3.5 mph - N/A   Unknown
9:54 AM 44.1 °F 42.5 °F 33.1 °F 65% 30.14 in - West 3.5 mph - N/A   Unknown
10:54 AM 44.1 °F - 32.0 °F 63% 30.12 in - Calm Calm - N/A   Unknown
11:54 AM 46.9 °F - 34.0 °F 61% 30.12 in - NNW 4.6 mph - N/A   Unknown
12:54 PM 46.0 °F 43.9 °F 34.0 °F 63% 30.13 in - West 4.6 mph - N/A   Unknown
1:54 PM 48.0 °F - 35.1 °F 61% 30.12 in - Variable 3.5 mph - N/A   Unknown
2:54 PM 48.0 °F - 36.0 °F 63% 30.12 in - South 3.5 mph - N/A   Unknown
3:54 PM 46.9 °F - 35.1 °F 63% 30.15 in - Calm Calm - N/A   Unknown
4:54 PM 41.0 °F - 33.1 °F 73% 30.15 in - Calm Calm - N/A   Unknown
5:54 PM 39.9 °F - 33.1 °F 77% 30.16 in - Calm Calm - N/A   Unknown
6:54 PM 39.0 °F - 34.0 °F 82% 30.18 in - Calm Calm - N/A   Unknown
7:54 PM 39.9 °F - 36.0 °F 86% 30.17 in - Calm Calm - N/A   Unknown
8:54 PM 39.0 °F - 37.9 °F 96% 30.18 in - Calm Calm - N/A   Unknown
9:54 PM 39.0 °F - 37.0 °F 93% 30.18 in - Calm Calm - N/A   Unknown
10:54 PM 36.0 °F - 33.1 °F 89% 30.19 in - Calm Calm - N/A   Unknown
11:54 PM 45.0 °F - 42.1 °F 90% 30.18 in - Calm Calm - N/A   Unknown